Starlink 11282

operational
NORAD ID: 60992 Int'l Des: 2024-158 Owner: SPXS Country: US Constellation: starlink
LEOCIRCULAR

Starlink 11282について

説明を読み込み中...

リアルタイム位置

3D地球を読み込み中...

次回通過

高度履歴

Altitude vs Time

uPlot chart will show altitude changes over time

軌道要素

1 60992U 24158C 25257.50678552 .00000184 00000-0 63699-5 0 9996
2 60992 53.1593 69.7478 0000827 90.2260 269.8853 15.69709377 59921
Epoch: Sep 14, 2025 • Age: 18 hours

現在のステータス

高度 365.9 km
速度 7.69 km/s
衛星直下点 -21.10°S, 40.98°W
打ち上げ日 Sep 5, 2024
運用期間 1 years
タイプ internet

技術仕様

分類 Payload
質量 960.00 kg
乾燥質量 910.00 kg
総質量 960.00 kg
長さ 0.30 m
直径 4.10 m
スパン 29.00 m
形状 Box + pan
製造者 SPXS
バスタイプ Starlink V2MD
フェーズステータス In Orbit
所有者/国 SPXS/US

大規模コンステレーション

Loading constellations...